Time,TemperatureF,DewpointF,PressureIn,WindDirection,WindDirectionDegrees,WindSpeedMPH,WindSpeedGustMPH,Humidity,HourlyPrecipIn,Conditions,Clouds,dailyrainin,SoftwareType,DateUTC
2013-01-22 00:00:00,32.2,21.8,30.14,West,280,0.0,0.0,65,0.00,,SKC,0.00,VWS V13.01,2013-01-22 08:00:00,
2013-01-22 00:06:00,32.2,21.8,30.14,West,280,0.0,0.0,65,0.00,,SKC,0.00,VWS V13.01,2013-01-22 08:06:00,
2013-01-22 00:12:00,32.2,21.8,30.14,West,280,0.0,0.0,65,0.00,,SKC,0.00,VWS V13.01,2013-01-22 08:12:00,
2013-01-22 00:18:00,32.2,21.8,30.14,West,280,0.0,0.0,65,0.00,,SKC,0.00,VWS V13.01,2013-01-22 08:18:00,
2013-01-22 00:24:00,32.2,21.8,30.14,West,280,0.0,0.0,65,0.00,,SKC,0.00,VWS V13.01,2013-01-22 08:24:00,
2013-01-22 00:30:00,32.2,21.8,30.14,West,280,0.0,0.0,65,0.00,,SKC,0.00,VWS V13.01,2013-01-22 08:30:00,
2013-01-22 00:36:00,32.4,22.0,30.11,West,280,0.0,0.0,65,0.00,,SKC,0.00,VWS V13.01,2013-01-22 08:36:00,
2013-01-22 00:42:00,32.4,22.0,30.11,West,280,0.0,0.0,65,0.00,,SKC,0.00,VWS V13.01,2013-01-22 08:42:00,
2013-01-22 00:48:00,32.4,22.7,30.11,West,280,0.0,0.0,67,0.00,,SKC,0.00,VWS V13.01,2013-01-22 08:48:00,
2013-01-22 00:54:00,32.5,22.1,30.11,West,280,0.0,0.0,65,0.00,,SKC,0.00,VWS V13.01,2013-01-22 08:54:00,
2013-01-22 01:00:00,32.5,22.1,30.11,West,281,0.0,0.0,65,0.00,,SKC,0.00,VWS V13.01,2013-01-22 09:00:00,
2013-01-22 01:06:00,32.7,22.3,30.11,West,280,0.0,0.0,65,0.00,,SKC,0.00,VWS V13.01,2013-01-22 09:06:00,
2013-01-22 01:12:00,32.5,22.1,30.11,West,280,0.0,0.0,65,0.00,,SKC,0.00,VWS V13.01,2013-01-22 09:12:00,
2013-01-22 01:18:00,32.5,22.1,30.11,West,280,0.0,0.0,65,0.00,,SKC,0.00,VWS V13.01,2013-01-22 09:18:00,
2013-01-22 01:25:00,32.5,22.1,30.11,West,280,0.0,0.0,65,0.00,,SKC,0.00,VWS V13.01,2013-01-22 09:25:00,
2013-01-22 01:31:00,32.5,22.1,30.11,West,280,0.0,0.0,65,0.00,,SKC,0.00,VWS V13.01,2013-01-22 09:31:00,
2013-01-22 01:37:00,32.5,22.1,30.11,West,280,0.0,0.0,65,0.00,,SKC,0.00,VWS V13.01,2013-01-22 09:37:00,
2013-01-22 01:43:00,32.5,22.1,30.11,West,280,0.0,0.0,65,0.00,,SKC,0.00,VWS V13.01,2013-01-22 09:43:00,
2013-01-22 01:49:00,32.5,22.1,30.11,West,281,0.0,0.0,65,0.00,,SKC,0.00,VWS V13.01,2013-01-22 09:49:00,
2013-01-22 01:55:00,32.2,21.8,30.11,West,280,0.0,0.0,65,0.00,,SKC,0.00,VWS V13.01,2013-01-22 09:55:00,
2013-01-22 02:01:00,32.2,21.8,30.11,West,280,0.0,0.0,65,0.00,,SKC,0.00,VWS V13.01,2013-01-22 10:01:00,
2013-01-22 02:07:00,32.2,21.8,30.11,West,280,0.0,0.0,65,0.00,,SKC,0.00,VWS V13.01,2013-01-22 10:07:00,
2013-01-22 02:13:00,32.0,21.6,30.11,West,280,0.0,0.0,65,0.00,,SKC,0.00,VWS V13.01,2013-01-22 10:13:00,
2013-01-22 02:19:00,31.8,21.5,30.08,West,280,0.0,0.0,65,0.00,,SKC,0.00,VWS V13.01,2013-01-22 10:19:00,
2013-01-22 02:25:00,31.6,21.3,30.08,West,280,0.0,0.0,65,0.00,,SKC,0.00,VWS V13.01,2013-01-22 10:25:00,
2013-01-22 02:31:00,31.5,21.1,30.11,West,280,0.0,0.0,65,0.00,,SKC,0.00,VWS V13.01,2013-01-22 10:31:00,
2013-01-22 02:38:00,31.6,21.3,30.11,West,280,0.0,0.0,65,0.00,,SKC,0.00,VWS V13.01,2013-01-22 10:38:00,
2013-01-22 02:44:00,31.6,21.3,30.11,West,280,0.0,0.0,65,0.00,,SKC,0.00,VWS V13.01,2013-01-22 10:44:00,
2013-01-22 02:50:00,31.3,20.2,30.11,West,280,0.0,0.0,63,0.00,,SKC,0.00,VWS V13.01,2013-01-22 10:50:00,
2013-01-22 02:56:00,31.1,20.8,30.11,West,280,0.0,0.0,65,0.00,,SKC,0.00,VWS V13.01,2013-01-22 10:56:00,
2013-01-22 03:02:00,30.7,20.4,30.11,West,280,0.0,0.0,65,0.00,,SKC,0.00,VWS V13.01,2013-01-22 11:02:00,
2013-01-22 03:08:00,30.7,20.4,30.11,West,280,0.0,0.0,65,0.00,,SKC,0.00,VWS V13.01,2013-01-22 11:08:00,
2013-01-22 03:14:00,30.9,20.6,30.11,West,280,0.0,0.0,65,0.00,,SKC,0.00,VWS V13.01,2013-01-22 11:14:00,
2013-01-22 03:20:00,30.9,20.6,30.08,West,280,0.0,0.0,65,0.00,,SKC,0.00,VWS V13.01,2013-01-22 11:20:00,
2013-01-22 03:26:00,30.7,20.4,30.08,West,280,0.0,0.0,65,0.00,,SKC,0.00,VWS V13.01,2013-01-22 11:26:00,
2013-01-22 03:32:00,30.4,20.1,30.08,West,280,0.0,0.0,65,0.00,,SKC,0.00,VWS V13.01,2013-01-22 11:32:00,
2013-01-22 03:39:00,30.4,20.1,30.08,West,280,0.0,0.0,65,0.00,,SKC,0.00,VWS V13.01,2013-01-22 11:39:00,
2013-01-22 03:45:00,30.4,20.1,30.08,West,280,0.0,0.0,65,0.00,,SKC,0.00,VWS V13.01,2013-01-22 11:45:00,
2013-01-22 03:53:00,30.2,19.9,30.08,West,280,0.0,0.0,65,0.00,,SKC,0.00,VWS V13.01,2013-01-22 11:53:00,
2013-01-22 03:59:00,30.2,20.6,30.08,West,280,0.0,0.0,67,0.00,,SKC,0.00,VWS V13.01,2013-01-22 11:59:00,
2013-01-22 04:05:00,30.2,20.6,30.08,West,280,0.0,0.0,67,0.00,,SKC,0.00,VWS V13.01,2013-01-22 12:05:00,
2013-01-22 04:11:00,30.2,20.6,30.08,West,280,0.0,0.0,67,0.00,,SKC,0.00,VWS V13.01,2013-01-22 12:11:00,
2013-01-22 04:17:00,30.2,20.6,30.08,West,280,0.0,0.0,67,0.00,,SKC,0.00,VWS V13.01,2013-01-22 12:17:00,
2013-01-22 04:23:00,30.2,20.6,30.08,West,280,0.0,0.0,67,0.00,,SKC,0.00,VWS V13.01,2013-01-22 12:23:00,
2013-01-22 04:30:00,29.8,19.6,30.08,West,280,0.0,0.0,65,0.00,,SKC,0.00,VWS V13.01,2013-01-22 12:30:00,
2013-01-22 04:36:00,29.7,19.4,30.08,West,280,0.0,0.0,65,0.00,,SKC,0.00,VWS V13.01,2013-01-22 12:36:00,
2013-01-22 04:42:00,29.7,19.4,30.08,West,280,0.0,0.0,65,0.00,,SKC,0.00,VWS V13.01,2013-01-22 12:42:00,
2013-01-22 04:48:00,29.5,20.0,30.08,West,280,0.0,0.0,67,0.00,,SKC,0.00,VWS V13.01,2013-01-22 12:48:00,
2013-01-22 04:54:00,29.5,20.0,30.08,West,280,0.0,0.0,67,0.00,,SKC,0.00,VWS V13.01,2013-01-22 12:54:00,
2013-01-22 05:00:00,29.5,20.0,30.08,West,280,0.0,0.0,67,0.00,,SKC,0.00,VWS V13.01,2013-01-22 13:00:00,
2013-01-22 05:10:00,29.5,20.0,30.08,West,280,0.0,0.0,67,0.00,,SKC,0.00,VWS V13.01,2013-01-22 13:10:00,
2013-01-22 05:15:00,29.5,20.0,30.08,West,280,0.0,0.0,67,0.00,,SKC,0.00,VWS V13.01,2013-01-22 13:15:00,
2013-01-22 05:21:00,29.5,20.0,30.08,West,280,0.0,0.0,67,0.00,,SKC,0.00,VWS V13.01,2013-01-22 13:21:00,
2013-01-22 05:27:00,29.3,19.8,30.08,West,280,0.0,0.0,67,0.00,,SKC,0.00,VWS V13.01,2013-01-22 13:27:00,
2013-01-22 05:34:00,29.3,19.8,30.08,West,281,0.0,0.0,67,0.00,,SKC,0.00,VWS V13.01,2013-01-22 13:34:00,
2013-01-22 05:40:00,29.1,19.6,30.08,West,280,0.0,0.0,67,0.00,,SKC,0.00,VWS V13.01,2013-01-22 13:40:00,
2013-01-22 05:46:00,29.1,19.6,30.08,West,280,0.0,0.0,67,0.00,,SKC,0.00,VWS V13.01,2013-01-22 13:46:00,
2013-01-22 05:52:00,29.1,19.6,30.08,West,280,0.0,0.0,67,0.00,,SKC,0.00,VWS V13.01,2013-01-22 13:52:00,
2013-01-22 05:58:00,29.1,19.6,30.08,West,280,0.0,0.0,67,0.00,,SKC,0.00,VWS V13.01,2013-01-22 13:58:00,
2013-01-22 06:04:00,29.1,19.6,30.08,West,280,0.0,0.0,67,0.00,,SKC,0.00,VWS V13.01,2013-01-22 14:04:00,
2013-01-22 06:10:00,28.9,19.4,30.08,West,280,0.0,0.0,67,0.00,,SKC,0.00,VWS V13.01,2013-01-22 14:10:00,
2013-01-22 06:15:00,28.9,19.4,30.08,West,280,0.0,0.0,67,0.00,,SKC,0.00,VWS V13.01,2013-01-22 14:15:00,
2013-01-22 06:20:00,28.8,19.3,30.08,West,280,0.0,0.0,67,0.00,,SKC,0.00,VWS V13.01,2013-01-22 14:20:00,
2013-01-22 06:25:00,28.8,19.3,30.08,NE,35,0.0,0.0,67,0.00,,SKC,0.00,VWS V13.01,2013-01-22 14:25:00,
2013-01-22 06:31:00,28.8,19.3,30.08,NE,35,0.0,0.0,67,0.00,,SKC,0.00,VWS V13.01,2013-01-22 14:31:00,
2013-01-22 06:37:00,28.8,19.3,30.08,NE,35,0.0,0.0,67,0.00,,SKC,0.00,VWS V13.01,2013-01-22 14:37:00,
2013-01-22 06:43:00,28.9,19.4,30.08,NE,55,0.0,0.0,67,0.00,,SKC,0.00,VWS V13.01,2013-01-22 14:43:00,
2013-01-22 06:49:00,28.8,19.3,30.08,NE,55,0.0,0.0,67,0.00,,SKC,0.00,VWS V13.01,2013-01-22 14:49:00,
2013-01-22 06:55:00,28.9,19.4,30.08,NE,55,0.0,0.0,67,0.00,,SKC,0.00,VWS V13.01,2013-01-22 14:55:00,
2013-01-22 07:02:00,28.8,19.3,30.08,NE,55,0.0,0.0,67,0.00,,SKC,0.00,VWS V13.01,2013-01-22 15:02:00,
2013-01-22 07:08:00,28.8,19.3,30.08,NE,55,0.0,0.0,67,0.00,,SKC,0.00,VWS V13.01,2013-01-22 15:08:00,
2013-01-22 07:14:00,28.9,19.4,30.08,NE,55,0.0,0.0,67,0.00,,SKC,0.00,VWS V13.01,2013-01-22 15:14:00,
2013-01-22 07:20:00,28.9,19.4,30.08,NE,55,0.0,0.0,67,0.00,,SKC,0.00,VWS V13.01,2013-01-22 15:20:00,
2013-01-22 07:26:00,28.8,18.5,30.08,NE,55,0.0,0.0,65,0.00,,SKC,0.00,VWS V13.01,2013-01-22 15:26:00,
2013-01-22 07:32:00,28.4,18.2,30.08,NE,55,0.0,0.0,65,0.00,,SKC,0.00,VWS V13.01,2013-01-22 15:32:00,
2013-01-22 07:38:00,28.2,18.0,30.08,NE,55,0.0,0.0,65,0.00,,SKC,0.00,VWS V13.01,2013-01-22 15:38:00,
2013-01-22 07:44:00,28.2,18.0,30.08,NE,55,0.0,0.0,65,0.00,,SKC,0.00,VWS V13.01,2013-01-22 15:44:00,
2013-01-22 07:50:00,28.4,18.9,30.08,NE,55,0.0,0.0,67,0.00,,SKC,0.00,VWS V13.01,2013-01-22 15:50:00,
2013-01-22 07:57:00,28.6,18.4,30.08,NE,55,0.0,0.0,65,0.00,,SKC,0.00,VWS V13.01,2013-01-22 15:57:00,
2013-01-22 08:03:00,28.8,19.3,30.08,NE,55,0.0,0.0,67,0.00,,SKC,0.00,VWS V13.01,2013-01-22 16:03:00,
2013-01-22 08:09:00,29.1,19.6,30.08,NE,55,0.0,0.0,67,0.00,,SKC,0.00,VWS V13.01,2013-01-22 16:09:00,
2013-01-22 08:15:00,29.7,20.1,30.08,NE,55,0.0,0.0,67,0.00,,SKC,0.00,VWS V13.01,2013-01-22 16:15:00,
2013-01-22 08:21:00,29.7,20.1,30.11,NE,54,0.0,0.0,67,0.00,,SKC,0.00,VWS V13.01,2013-01-22 16:21:00,
2013-01-22 08:27:00,29.7,20.1,30.11,NE,55,0.0,0.0,67,0.00,,SKC,0.00,VWS V13.01,2013-01-22 16:27:00,
2013-01-22 08:33:00,29.7,20.1,30.11,NE,55,0.0,0.0,67,0.00,,SKC,0.00,VWS V13.01,2013-01-22 16:33:00,
2013-01-22 08:39:00,29.7,20.1,30.11,NE,55,0.0,0.0,67,0.00,,SKC,0.00,VWS V13.01,2013-01-22 16:39:00,
2013-01-22 08:45:00,29.7,20.1,30.11,NE,53,0.0,0.0,67,0.00,,SKC,0.00,VWS V13.01,2013-01-22 16:45:00,
2013-01-22 08:51:00,29.7,20.1,30.11,NE,55,0.0,0.0,67,0.00,,SKC,0.00,VWS V13.01,2013-01-22 16:51:00,
2013-01-22 08:58:00,29.7,20.1,30.11,NE,55,0.0,0.0,67,0.00,,SKC,0.00,VWS V13.01,2013-01-22 16:58:00,
2013-01-22 09:04:00,29.7,20.1,30.11,NE,55,0.0,0.0,67,0.00,,SKC,0.00,VWS V13.01,2013-01-22 17:04:00,
2013-01-22 09:10:00,29.7,20.1,30.11,NE,55,0.0,0.0,67,0.00,,SKC,0.00,VWS V13.01,2013-01-22 17:10:00,
2013-01-22 09:16:00,29.7,20.1,30.11,NE,55,0.0,0.0,67,0.00,,SKC,0.00,VWS V13.01,2013-01-22 17:16:00,
2013-01-22 09:22:00,29.7,20.1,30.11,NE,55,0.0,0.0,67,0.00,,SKC,0.00,VWS V13.01,2013-01-22 17:22:00,
2013-01-22 09:29:00,37.9,25.7,30.11,NE,55,0.0,0.0,61,0.00,,SKC,0.00,VWS V13.01,2013-01-22 17:29:00,
2013-01-22 09:35:00,38.8,26.5,30.11,NE,55,0.0,0.0,61,0.00,,SKC,0.00,VWS V13.01,2013-01-22 17:35:00,
2013-01-22 09:41:00,39.6,27.2,30.11,NE,55,0.0,0.0,61,0.00,,SKC,0.00,VWS V13.01,2013-01-22 17:41:00,
2013-01-22 09:47:00,40.5,27.2,30.11,NE,55,0.0,0.0,59,0.00,,SKC,0.00,VWS V13.01,2013-01-22 17:47:00,
2013-01-22 09:53:00,41.5,28.2,30.11,NE,55,0.0,0.0,59,0.00,,SKC,0.00,VWS V13.01,2013-01-22 17:53:00,
2013-01-22 09:59:00,42.4,29.1,30.11,NE,55,0.0,0.0,59,0.00,,SKC,0.00,VWS V13.01,2013-01-22 17:59:00,
2013-01-22 10:06:00,43.7,27.5,30.11,NE,55,0.0,0.0,52,0.00,,SKC,0.00,VWS V13.01,2013-01-22 18:06:00,
2013-01-22 10:12:00,45.3,25.9,30.11,NE,55,0.0,0.0,46,0.00,,SKC,0.00,VWS V13.01,2013-01-22 18:12:00,
2013-01-22 10:20:00,47.1,27.5,30.11,NE,55,0.0,0.0,46,0.00,,SKC,0.00,VWS V13.01,2013-01-22 18:20:00,
2013-01-22 10:29:00,48.6,25.3,30.11,NE,55,0.0,0.0,40,0.00,,SKC,0.00,VWS V13.01,2013-01-22 18:29:00,
2013-01-22 10:35:00,49.5,26.1,30.11,NE,55,0.0,0.0,40,0.00,,SKC,0.00,VWS V13.01,2013-01-22 18:35:00,
2013-01-22 10:41:00,50.4,26.9,30.11,NE,55,0.0,0.0,40,0.00,,SKC,0.00,VWS V13.01,2013-01-22 18:41:00,
2013-01-22 10:47:00,51.3,23.6,30.11,NE,55,0.0,0.0,34,0.00,,SKC,0.00,VWS V13.01,2013-01-22 18:47:00,
2013-01-22 10:53:00,52.2,24.4,30.11,NE,55,0.0,0.0,34,0.00,,SKC,0.00,VWS V13.01,2013-01-22 18:53:00,
2013-01-22 10:59:00,53.2,23.8,30.11,NE,55,0.0,0.0,31,0.00,,SKC,0.00,VWS V13.01,2013-01-22 18:59:00,
2013-01-22 11:05:00,54.5,24.9,30.11,NE,55,0.0,0.0,31,0.00,,SKC,0.00,VWS V13.01,2013-01-22 19:05:00,
2013-01-22 11:12:00,55.6,25.8,30.11,NE,55,0.0,0.0,31,0.00,,SKC,0.00,VWS V13.01,2013-01-22 19:12:00,
2013-01-22 11:18:00,56.7,25.1,30.11,NE,55,0.0,0.0,29,0.00,,SKC,0.00,VWS V13.01,2013-01-22 19:18:00,
2013-01-22 11:24:00,57.2,25.6,30.11,NE,55,0.0,0.0,29,0.00,,SKC,0.00,VWS V13.01,2013-01-22 19:24:00,
2013-01-22 11:30:00,57.9,26.2,30.11,NE,55,0.0,0.0,29,0.00,,SKC,0.00,VWS V13.01,2013-01-22 19:30:00,
2013-01-22 11:36:00,58.6,26.8,30.08,NE,55,0.0,0.0,29,0.00,,SKC,0.00,VWS V13.01,2013-01-22 19:36:00,
2013-01-22 11:42:00,59.4,27.5,30.08,NW,325,0.0,0.0,29,0.00,,SKC,0.00,VWS V13.01,2013-01-22 19:42:00,
2013-01-22 11:48:00,59.9,27.9,30.08,WSW,255,0.0,0.0,29,0.00,,SKC,0.00,VWS V13.01,2013-01-22 19:48:00,
2013-01-22 11:55:00,60.3,28.2,30.08,WSW,255,0.0,0.0,29,0.00,,SKC,0.00,VWS V13.01,2013-01-22 19:55:00,
2013-01-22 12:00:00,60.3,28.2,30.08,WSW,255,0.0,0.0,29,0.00,,SKC,0.00,VWS V13.01,2013-01-22 20:00:00,
2013-01-22 12:05:00,60.3,28.2,30.08,WSW,255,0.0,0.0,29,0.00,,SKC,0.00,VWS V13.01,2013-01-22 20:05:00,
2013-01-22 12:13:00,60.8,28.7,30.08,WSW,237,0.0,0.0,29,0.00,,SKC,0.00,VWS V13.01,2013-01-22 20:13:00,
2013-01-22 12:19:00,61.0,28.9,30.05,SW,223,0.0,0.0,29,0.00,,SKC,0.00,VWS V13.01,2013-01-22 20:19:00,
2013-01-22 12:25:00,61.0,28.9,30.05,SSW,205,0.0,0.0,29,0.00,,SKC,0.00,VWS V13.01,2013-01-22 20:25:00,
2013-01-22 12:32:00,61.0,28.9,30.05,SSE,156,0.0,0.0,29,0.00,,SKC,0.00,VWS V13.01,2013-01-22 20:32:00,
2013-01-22 12:38:00,61.3,29.2,30.05,West,280,0.0,0.0,29,0.00,,SKC,0.00,VWS V13.01,2013-01-22 20:38:00,
2013-01-22 12:44:00,61.9,27.8,30.05,West,270,0.0,0.0,27,0.00,,SKC,0.00,VWS V13.01,2013-01-22 20:44:00,
2013-01-22 12:50:00,62.2,28.1,30.05,NW,309,0.0,0.0,27,0.00,,SKC,0.00,VWS V13.01,2013-01-22 20:50:00,
2013-01-22 12:56:00,63.0,28.8,30.05,SSE,167,0.0,0.0,27,0.00,,SKC,0.00,VWS V13.01,2013-01-22 20:56:00,
2013-01-22 13:04:00,63.1,28.9,30.05,West,279,0.0,0.0,27,0.00,,SKC,0.00,VWS V13.01,2013-01-22 21:04:00,
2013-01-22 13:10:00,63.3,29.1,30.05,WNW,295,0.0,0.0,27,0.00,,SKC,0.00,VWS V13.01,2013-01-22 21:10:00,
2013-01-22 13:17:00,63.7,29.4,30.02,West,271,0.0,0.0,27,0.00,,SKC,0.00,VWS V13.01,2013-01-22 21:17:00,
2013-01-22 13:23:00,63.9,29.5,30.02,West,259,0.0,0.0,27,0.00,,SKC,0.00,VWS V13.01,2013-01-22 21:23:00,
2013-01-22 13:29:00,63.9,29.5,30.02,West,273,0.0,0.0,27,0.00,,SKC,0.00,VWS V13.01,2013-01-22 21:29:00,
2013-01-22 13:35:00,64.0,29.7,30.02,WNW,282,0.0,0.0,27,0.00,,SKC,0.00,VWS V13.01,2013-01-22 21:35:00,
2013-01-22 13:39:00,64.2,29.8,30.02,West,264,0.0,0.0,27,0.00,,SKC,0.00,VWS V13.01,2013-01-22 21:39:00,
2013-01-22 13:45:00,63.9,29.5,30.02,WNW,284,0.0,0.0,27,0.00,,SKC,0.00,VWS V13.01,2013-01-22 21:45:00,
2013-01-22 13:52:00,63.5,29.2,30.02,WNW,292,0.0,0.0,27,0.00,,SKC,0.00,VWS V13.01,2013-01-22 21:52:00,
2013-01-22 13:58:00,63.5,29.2,30.02,West,273,0.0,0.0,27,0.00,,SKC,0.00,VWS V13.01,2013-01-22 21:58:00,
2013-01-22 14:04:00,64.0,29.7,30.02,West,278,0.0,0.0,27,0.00,,SKC,0.00,VWS V13.01,2013-01-22 22:04:00,
2013-01-22 14:10:00,64.4,30.0,30.02,NW,316,0.0,0.0,27,0.00,,SKC,0.00,VWS V13.01,2013-01-22 22:10:00,
2013-01-22 14:18:00,64.0,29.7,30.02,NW,317,0.0,0.0,27,0.00,,SKC,0.00,VWS V13.01,2013-01-22 22:18:00,
2013-01-22 14:25:00,63.9,29.5,30.02,WSW,255,0.0,0.0,27,0.00,,SKC,0.00,VWS V13.01,2013-01-22 22:25:00,
2013-01-22 14:30:00,63.7,29.4,30.02,WNW,289,0.0,0.0,27,0.00,,SKC,0.00,VWS V13.01,2013-01-22 22:30:00,
2013-01-22 14:35:00,63.5,29.2,30.02,West,266,0.0,0.0,27,0.00,,SKC,0.00,VWS V13.01,2013-01-22 22:35:00,
2013-01-22 14:41:00,63.5,29.2,30.02,SW,233,0.0,0.0,27,0.00,,SKC,0.00,VWS V13.01,2013-01-22 22:41:00,
2013-01-22 14:47:00,63.3,29.1,30.02,West,278,0.0,0.0,27,0.00,,SKC,0.00,VWS V13.01,2013-01-22 22:47:00,
2013-01-22 14:53:00,63.1,28.9,30.02,West,269,0.0,0.0,27,0.00,,SKC,0.00,VWS V13.01,2013-01-22 22:53:00,
2013-01-22 14:59:00,63.1,28.9,30.02,West,274,0.0,0.0,27,0.00,,SKC,0.00,VWS V13.01,2013-01-22 22:59:00,
2013-01-22 15:05:00,63.0,28.8,30.02,West,278,0.0,0.0,27,0.00,,SKC,0.00,VWS V13.01,2013-01-22 23:05:00,
2013-01-22 15:11:00,62.8,28.6,30.02,West,278,0.0,0.0,27,0.00,,SKC,0.00,VWS V13.01,2013-01-22 23:11:00,
2013-01-22 15:17:00,62.8,28.6,30.02,West,261,0.0,0.0,27,0.00,,SKC,0.00,VWS V13.01,2013-01-22 23:17:00,
2013-01-22 15:24:00,62.2,28.1,30.02,West,261,0.0,0.0,27,0.00,,SKC,0.00,VWS V13.01,2013-01-22 23:24:00,
2013-01-22 15:30:00,61.9,27.8,30.02,SSW,209,0.0,0.0,27,0.00,,SKC,0.00,VWS V13.01,2013-01-22 23:30:00,
2013-01-22 15:38:00,61.2,29.0,30.02,SW,222,0.0,0.0,29,0.00,,SKC,0.00,VWS V13.01,2013-01-22 23:38:00,
2013-01-22 15:44:00,60.6,28.5,30.02,SW,222,0.0,0.0,29,0.00,,SKC,0.00,VWS V13.01,2013-01-22 23:44:00,
2013-01-22 15:50:00,60.1,28.1,30.02,SW,222,0.0,0.0,29,0.00,,SKC,0.00,VWS V13.01,2013-01-22 23:50:00,
2013-01-22 15:55:00,59.5,27.6,30.02,SW,222,0.0,0.0,29,0.00,,SKC,0.00,VWS V13.01,2013-01-22 23:55:00,
2013-01-22 16:01:00,59.0,27.1,30.02,SW,222,0.0,0.0,29,0.00,,SKC,0.00,VWS V13.01,2013-01-23 00:01:00,
2013-01-22 16:07:00,58.5,26.7,30.02,SW,222,0.0,0.0,29,0.00,,SKC,0.00,VWS V13.01,2013-01-23 00:07:00,
2013-01-22 16:13:00,58.1,26.4,30.02,SW,222,0.0,0.0,29,0.00,,SKC,0.00,VWS V13.01,2013-01-23 00:13:00,
2013-01-22 16:19:00,57.9,26.2,30.02,SW,222,0.0,0.0,29,0.00,,SKC,0.00,VWS V13.01,2013-01-23 00:19:00,
2013-01-22 16:25:00,57.0,25.4,30.02,SW,222,0.0,0.0,29,0.00,,SKC,0.00,VWS V13.01,2013-01-23 00:25:00,
2013-01-22 16:31:00,56.3,24.8,30.02,SW,222,0.0,0.0,29,0.00,,SKC,0.00,VWS V13.01,2013-01-23 00:31:00,
2013-01-22 16:37:00,55.6,25.8,30.02,SW,222,0.0,0.0,31,0.00,,SKC,0.00,VWS V13.01,2013-01-23 00:37:00,
2013-01-22 16:44:00,54.7,25.0,30.02,SW,222,0.0,0.0,31,0.00,,SKC,0.00,VWS V13.01,2013-01-23 00:44:00,
2013-01-22 16:50:00,54.0,24.4,30.02,SW,222,0.0,0.0,31,0.00,,SKC,0.00,VWS V13.01,2013-01-23 00:50:00,
2013-01-22 16:56:00,53.1,23.6,30.02,SW,222,0.0,0.0,31,0.00,,SKC,0.00,VWS V13.01,2013-01-23 00:56:00,
2013-01-22 17:02:00,52.0,24.2,30.02,SW,222,0.0,0.0,34,0.00,,SKC,0.00,VWS V13.01,2013-01-23 01:02:00,
2013-01-22 17:08:00,51.1,23.4,30.02,SW,222,0.0,0.0,34,0.00,,SKC,0.00,VWS V13.01,2013-01-23 01:08:00,
2013-01-22 17:15:00,50.4,22.8,30.02,SW,222,0.0,0.0,34,0.00,,SKC,0.00,VWS V13.01,2013-01-23 01:15:00,
2013-01-22 17:21:00,49.5,22.0,30.02,SW,222,0.0,0.0,34,0.00,,SKC,0.00,VWS V13.01,2013-01-23 01:21:00,
2013-01-22 17:27:00,48.9,21.5,30.02,SW,222,0.0,0.0,34,0.00,,SKC,0.00,VWS V13.01,2013-01-23 01:27:00,
2013-01-22 17:34:00,48.4,21.0,30.02,SW,222,0.0,0.0,34,0.00,,SKC,0.00,VWS V13.01,2013-01-23 01:34:00,
2013-01-22 17:40:00,47.8,20.6,30.02,SW,222,0.0,0.0,34,0.00,,SKC,0.00,VWS V13.01,2013-01-23 01:40:00,
2013-01-22 17:46:00,47.3,21.5,30.02,SW,222,0.0,0.0,36,0.00,,SKC,0.00,VWS V13.01,2013-01-23 01:46:00,
2013-01-22 17:54:00,46.6,20.9,30.02,SW,222,0.0,0.0,36,0.00,,SKC,0.00,VWS V13.01,2013-01-23 01:54:00,
2013-01-22 18:00:00,46.2,20.6,30.02,SW,222,0.0,0.0,36,0.00,,SKC,0.00,VWS V13.01,2013-01-23 02:00:00,
2013-01-22 18:05:00,46.0,20.4,30.02,SW,222,0.0,0.0,36,0.00,,SKC,0.00,VWS V13.01,2013-01-23 02:05:00,
2013-01-22 18:11:00,45.7,20.1,30.02,SW,222,0.0,0.0,36,0.00,,SKC,0.00,VWS V13.01,2013-01-23 02:11:00,
2013-01-22 18:17:00,45.1,23.4,30.02,SW,222,0.0,0.0,42,0.00,,SKC,0.00,VWS V13.01,2013-01-23 02:17:00,
2013-01-22 18:23:00,44.6,19.1,30.02,SW,222,0.0,0.0,36,0.00,,SKC,0.00,VWS V13.01,2013-01-23 02:23:00,
2013-01-22 18:29:00,44.1,18.6,30.02,SW,222,0.0,0.0,36,0.00,,SKC,0.00,VWS V13.01,2013-01-23 02:29:00,
2013-01-22 18:35:00,43.7,19.6,30.02,SW,222,0.0,0.0,38,0.00,,SKC,0.00,VWS V13.01,2013-01-23 02:35:00,
2013-01-22 18:41:00,43.3,21.8,30.02,SW,222,0.0,0.0,42,0.00,,SKC,0.00,VWS V13.01,2013-01-23 02:41:00,
2013-01-22 18:47:00,43.0,21.5,30.02,SW,222,0.0,0.0,42,0.00,,SKC,0.00,VWS V13.01,2013-01-23 02:47:00,
2013-01-22 18:54:00,42.6,21.1,30.02,SW,222,0.0,0.0,42,0.00,,SKC,0.00,VWS V13.01,2013-01-23 02:54:00,
2013-01-22 19:00:00,42.1,20.7,30.02,SW,222,0.0,0.0,42,0.00,,SKC,0.00,VWS V13.01,2013-01-23 03:00:00,
2013-01-22 19:08:00,41.5,21.3,30.02,SW,222,0.0,0.0,44,0.00,,SKC,0.00,VWS V13.01,2013-01-23 03:08:00,
2013-01-22 19:14:00,41.4,23.3,30.02,SW,222,0.0,0.0,48,0.00,,SKC,0.00,VWS V13.01,2013-01-23 03:14:00,
2013-01-22 19:20:00,41.2,23.1,30.02,SW,222,0.0,0.0,48,0.00,,SKC,0.00,VWS V13.01,2013-01-23 03:20:00,
2013-01-22 19:25:00,41.2,23.1,30.02,SW,222,0.0,0.0,48,0.00,,SKC,0.00,VWS V13.01,2013-01-23 03:25:00,
2013-01-22 19:31:00,40.8,22.8,30.02,SW,222,0.0,0.0,48,0.00,,SKC,0.00,VWS V13.01,2013-01-23 03:31:00,
2013-01-22 19:37:00,40.8,22.8,30.02,SW,222,0.0,0.0,48,0.00,,SKC,0.00,VWS V13.01,2013-01-23 03:37:00,
2013-01-22 19:44:00,40.6,22.6,30.02,SW,222,0.0,0.0,48,0.00,,SKC,0.00,VWS V13.01,2013-01-23 03:44:00,
2013-01-22 19:50:00,40.6,22.6,30.02,SW,222,0.0,0.0,48,0.00,,SKC,0.00,VWS V13.01,2013-01-23 03:50:00,
2013-01-22 19:59:00,40.3,22.3,30.02,SW,222,0.0,0.0,48,0.00,,SKC,0.00,VWS V13.01,2013-01-23 03:59:00,
2013-01-22 20:05:00,39.9,22.0,30.02,SW,222,0.0,0.0,48,0.00,,SKC,0.00,VWS V13.01,2013-01-23 04:05:00,
2013-01-22 20:11:00,39.6,21.6,30.02,SW,220,0.0,0.0,48,0.00,,SKC,0.00,VWS V13.01,2013-01-23 04:11:00,
2013-01-22 20:18:00,39.7,24.7,30.05,SW,222,0.0,0.0,55,0.00,,SKC,0.00,VWS V13.01,2013-01-23 04:18:00,
2013-01-22 20:24:00,39.4,24.4,30.05,SW,222,0.0,0.0,55,0.00,,SKC,0.00,VWS V13.01,2013-01-23 04:24:00,
2013-01-22 20:30:00,39.4,24.4,30.05,SW,222,0.0,0.0,55,0.00,,SKC,0.00,VWS V13.01,2013-01-23 04:30:00,
2013-01-22 20:35:00,39.4,26.2,30.05,SW,222,0.0,0.0,59,0.00,,SKC,0.00,VWS V13.01,2013-01-23 04:35:00,
2013-01-22 20:42:00,39.2,24.2,30.05,ENE,70,0.0,0.0,55,0.00,,SKC,0.00,VWS V13.01,2013-01-23 04:42:00,
2013-01-22 20:48:00,38.8,25.7,30.05,ENE,75,0.0,0.0,59,0.00,,SKC,0.00,VWS V13.01,2013-01-23 04:48:00,
2013-01-22 20:54:00,38.8,23.9,30.05,ENE,75,0.0,0.0,55,0.00,,SKC,0.00,VWS V13.01,2013-01-23 04:54:00,
2013-01-22 21:03:00,38.7,25.5,30.05,ENE,75,0.0,0.0,59,0.00,,SKC,0.00,VWS V13.01,2013-01-23 05:03:00,
2013-01-22 21:05:00,38.7,25.5,30.05,ENE,75,0.0,0.0,59,0.00,,SKC,0.00,VWS V13.01,2013-01-23 05:05:00,
2013-01-22 21:07:00,38.7,25.5,30.05,ENE,75,0.0,0.0,59,0.00,,SKC,0.00,VWS V13.01,2013-01-23 05:07:00,
2013-01-22 21:13:00,38.7,25.5,30.05,ENE,75,0.0,0.0,59,0.00,,SKC,0.00,VWS V13.01,2013-01-23 05:13:00,
2013-01-22 21:20:00,38.7,25.5,30.02,ENE,75,0.0,0.0,59,0.00,,SKC,0.00,VWS V13.01,2013-01-23 05:20:00,
2013-01-22 21:26:00,38.7,25.5,30.02,ENE,75,0.0,0.0,59,0.00,,SKC,0.00,VWS V13.01,2013-01-23 05:26:00,
2013-01-22 21:32:00,38.7,25.5,30.05,ENE,75,0.0,0.0,59,0.00,,SKC,0.00,VWS V13.01,2013-01-23 05:32:00,
2013-01-22 21:39:00,38.8,25.7,30.05,ENE,75,0.0,0.0,59,0.00,,SKC,0.00,VWS V13.01,2013-01-23 05:39:00,
2013-01-22 21:45:00,38.8,25.7,30.05,ENE,75,0.0,0.0,59,0.00,,SKC,0.00,VWS V13.01,2013-01-23 05:45:00,
2013-01-22 21:51:00,38.8,25.7,30.05,ENE,75,0.0,0.0,59,0.00,,SKC,0.00,VWS V13.01,2013-01-23 05:51:00,
2013-01-22 21:57:00,38.7,25.5,30.05,ENE,75,0.0,0.0,59,0.00,,SKC,0.00,VWS V13.01,2013-01-23 05:57:00,
2013-01-22 22:04:00,38.5,23.6,30.05,ENE,75,0.0,0.0,55,0.00,,SKC,0.00,VWS V13.01,2013-01-23 06:04:00,
2013-01-22 22:10:00,38.3,25.2,30.05,ENE,75,0.0,0.0,59,0.00,,SKC,0.00,VWS V13.01,2013-01-23 06:10:00,
2013-01-22 22:16:00,38.1,25.8,30.05,ENE,75,0.0,0.0,61,0.00,,SKC,0.00,VWS V13.01,2013-01-23 06:16:00,
2013-01-22 22:22:00,38.1,25.8,30.05,ENE,75,0.0,0.0,61,0.00,,SKC,0.00,VWS V13.01,2013-01-23 06:22:00,
2013-01-22 22:28:00,38.1,25.8,30.05,ENE,75,0.0,0.0,61,0.00,,SKC,0.00,VWS V13.01,2013-01-23 06:28:00,
2013-01-22 22:35:00,38.3,26.0,30.05,ENE,75,0.0,0.0,61,0.00,,SKC,0.00,VWS V13.01,2013-01-23 06:35:00,
2013-01-22 22:40:00,38.3,26.0,30.05,ENE,75,0.0,0.0,61,0.00,,SKC,0.00,VWS V13.01,2013-01-23 06:40:00,
2013-01-22 22:45:00,38.3,26.0,30.05,ENE,75,0.0,0.0,61,0.00,,SKC,0.00,VWS V13.01,2013-01-23 06:45:00,
2013-01-22 22:51:00,37.9,25.7,30.05,ENE,75,0.0,0.0,61,0.00,,SKC,0.00,VWS V13.01,2013-01-23 06:51:00,
2013-01-22 22:57:00,37.6,25.3,30.05,ENE,75,0.0,0.0,61,0.00,,SKC,0.00,VWS V13.01,2013-01-23 06:57:00,
2013-01-22 23:03:00,37.4,25.2,30.05,ENE,75,0.0,0.0,61,0.00,,SKC,0.00,VWS V13.01,2013-01-23 07:03:00,
2013-01-22 23:09:00,37.0,24.8,30.05,ENE,75,0.0,0.0,61,0.00,,SKC,0.00,VWS V13.01,2013-01-23 07:09:00,
2013-01-22 23:15:00,36.9,24.6,30.05,ENE,75,0.0,0.0,61,0.00,,SKC,0.00,VWS V13.01,2013-01-23 07:15:00,
2013-01-22 23:22:00,36.5,24.3,30.05,ENE,75,0.0,0.0,61,0.00,,SKC,0.00,VWS V13.01,2013-01-23 07:22:00,
2013-01-22 23:28:00,36.3,24.1,30.05,ENE,75,0.0,0.0,61,0.00,,SKC,0.00,VWS V13.01,2013-01-23 07:28:00,
2013-01-22 23:34:00,36.1,24.8,30.05,ENE,75,0.0,0.0,63,0.00,,SKC,0.00,VWS V13.01,2013-01-23 07:34:00,
2013-01-22 23:40:00,36.3,25.0,30.05,ENE,75,0.0,0.0,63,0.00,,SKC,0.00,VWS V13.01,2013-01-23 07:40:00,
2013-01-22 23:46:00,36.7,25.3,30.05,ENE,75,0.0,0.0,63,0.00,,SKC,0.00,VWS V13.01,2013-01-23 07:46:00,
2013-01-22 23:52:00,37.0,25.6,30.05,ENE,75,0.0,0.0,63,0.00,,SKC,0.00,VWS V13.01,2013-01-23 07:52:00,
2013-01-22 23:59:00,37.0,25.6,30.05,ENE,75,0.0,0.0,63,0.00,,SKC,0.00,VWS V13.01,2013-01-23 07:59:00,